Dewpoint
-2 -2 -2 -3 -2 -3 -4 -4 -6 -9 -10 -8 -1 -4 -6 -5 -2 2 3 4 4 3 3 4 4 3 5 10 11 10 11 9 8 7 8 7 6 6 7 5 5 4 2 2
0 -3 -1 -2 -4 -4 -5 -5 -3 -8 -10 -9 -8 -9 -8 -6 -4 -1 2 4 4 5 5 8 7 5 5 9 11 10 10 10 8 9 9 8 7 6 5 5 2 4 2 4
2 -1 -0 -4 -6 -4 -6 -7 -3 -5 -8 -10 -6 -9 -5 -5 -5 -4 0 2 4 5 7 9 8 8 8 10 11 10 10 10 9 10 8 7 6 6 6 4 2 3 3 3
3 -1 -2 -4 -5 -7 -5 -3 -4 -5 -4 -3 -2 0 -4 -3 -2 -2 -2 -0 2 4 6 8 9 9 10 10 10 10 10 9 9 8 7 6 6 5 4 4 4 4 3 3
4 3 0 -5 -3 -3 -2 -2 -2 -6 -5 1 -2 1 1 -2 1 1 2 2 2 3 4 7 9 10 10 10 10 10 8 9 9 7 6 6 5 5 4 4 4 4 3 0
0 1 3 -1 -3 -4 -2 -2 -3 -3 -2 7 4 2 1 1 1 1 1 2 3 4 6 7 9 10 10 9 9 10 9 8 7 6 6 6 5 5 4 3 2 0 -2 -3
-5 -4 -3 -3 -0 -4 -5 -3 4 9 10 6 -4 -3 1 0 1 7 2 2 4 6 7 7 9 9 10 10 9 9 7 6 6 6 6 6 6 4 3 0 -1 -3 -2 -3
-3 4 -3 -4 -4 3 3 -5 5 8 10 6 -2 -2 -2 -3 -3 -1 2 4 6 7 7 8 8 7 8 8 9 8 6 5 5 6 6 5 3 0 -2 -2 -1 1 -4 -5
4 3 -1 -3 -6 -5 -4 -2 -3 2 6 9 -2 -9 -0 -2 -2 -2 3 5 6 6 7 6 4 4 5 7 7 7 5 5 5 5 4 1 -0 -2 -3 0 -2 -4 -4 -5
4 8 3 -2 -4 -4 -3 -4 2 -1 4 4 -4 -5 4 -0 -2 -1 3 4 5 6 5 3 2 3 4 5 5 5 5 4 5 4 1 0 -1 -1 -1 -3 -4 -4 -5 -5
1 5 2 -1 -2 -6 -1 -1 -3 -5 2 6 6 -1 -6 -5 -4 -2 0 4 4 5 4 3 2 2 4 5 5 5 5 4 4 2 0 -1 0 -2 -2 -5 -4 -5 -6 -5
-4 -2 3 -1 -3 -4 -3 -1 -2 8 2 3 8 3 -6 -6 -6 -3 -2 1 3 4 4 3 2 3 4 5 5 6 5 3 2 -0 -0 0 -1 -2 -5 -5 -5 -6 -6 -5
-0 0 3 -1 -1 -2 -2 -4 -5 -2 2 4 10 3 -6 -7 -7 -6 -4 -2 1 2 3 3 3 3 4 5 5 5 4 1 -0 -0 -0 -1 -3 -4 -5 -5 -6 -6 -5 -5
1 -1 -2 3 -1 -1 1 -2 -5 -3 8 3 2 -5 -7 -6 -6 -7 -5 -4 -2 1 2 2 2 4 4 5 5 4 2 0 -1 -1 -1 -4 -4 -4 -5 -5 -6 -5 -5 -5
0 -1 -3 -4 -3 -2 -1 -2 -4 -4 -2 2 0 -5 -7 -9 -6 -9 -8 -6 -4 -4 1 1 2 3 4 4 4 3 1 -1 -1 -1 -4 -2 -5 -5 -5 -6 -5 -5 -5 -5
0 3 2 3 0 -1 -0 -3 -3 -3 -5 -5 -6 -6 -9 -8 -6 -6 -7 -7 -6 -4 -3 1 2 3 4 4 3 2 0 -1 -0 -2 -3 -1 -5 -6 -7 -6 -5 -5 -6 -7
3 5 6 6 1 -0 4 1 -1 -3 -5 -5 -2 -3 -6 -7 -8 -6 -6 -6 -4 -3 -3 -1 2 2 3 3 2 1 -0 -1 -1 -2 -4 -7 -5 -5 -7 -6 -6 -7 -7 -7
4 5 8 9 4 6 -5 -7 -8 -5 -7 -8 -8 -7 -8 -4 -4 -5 -5 -4 -4 -3 -2 -2 -1 2 2 2 2 0 -1 -2 -2 -5 -5 -5 -7 -7 -7 -7 -7 -7 -7 -7
1 5 8 10 5 -1 -4 -8 -6 -6 -6 -7 -6 -7 -7 -7 -4 -3 -4 -3 -4 -4 -4 -3 -1 1 2 2 0 -1 -2 -4 -5 -4 -3 -6 -8 -9 -9 -7 -7 -7 -7 -6
-2 2 8 7 9 8 1 -5 -6 -6 1 -4 -4 -4 -4 -5 3 1 -0 -2 -2 -2 -1 -1 -0 1 1 -0 -2 -4 -5 -7 -6 -4 -7 -7 -8 -10 -8 -7 -7 -7 -7 -6
7 8 8 7 9 6 -3 -5 -4 2 4 -3 -2 -3 -2 0 0 2 1 0 -1 -0 1 1 1 0 -1 -3 -5 -5 -4 -3 -2 -5 -7 -6 -9 -8 -7 -8 -8 -7 -7 -7
7 9 8 9 8 8 -5 -3 0 2 -2 -2 -2 -2 -1 -1 -1 0 -0 1 1 1 0 -1 -2 -4 -3 -3 -2 -2 -2 -5 -6 -4 -9 -11 -12 -8 -7 -7 -7 -7 -6 -6
5 4 7 6 6 -1 -5 -4 -4 -3 -2 -1 -1 -0 -0 1 1 1 1 1 1 -3 -4 -4 -3 -2 -2 -1 -1 -2 -5 -5 -7 -8 -10 -16 -9 -6 -6 -6 -6 -6 -7 -7
-0 -0 4 2 -4 -4 -4 -3 -1 1 2 2 2 2 3 3 3 2 1 -1 -4 -3 -1 -1 -2 -2 -3 -4 -5 -5 -4 -6 -9 -13 -16 -7 -6 -8 -8 -7 -6 -6 -6 -6
2 -0 -0 0 -2 -1 1 3 4 3 3 3 3 2 1 2 1 -1 -3 -3 -2 -2 -2 -3 -3 -3 -3 -3 -4 -5 -7 -9 -10 -6 -10 -13 -13 -12 -10 -9 -7 -6 -6 -6
0 1 7 7 2 3 3 2 2 2 2 1 0 -1 -1 -1 -2 -2 -2 -3 -3 -3 -2 -1 -1 -3 -4 -6 -6 -8 -11 -10 -12 -14 -14 -14 -12 -11 -9 -7 -6 -6 -7 -6
Wind_Speed
15 8 11 3 4 12 8 12 11 10 7 11 15 16 16 16 19 18 18 19 20 20 18 19 17 16 18 24 23 20 25 20 19 16 17 15 13 11 7 6 5 3 4 3
9 8 4 7 12 8 10 13 5 7 5 6 11 10 15 14 18 21 20 23 22 21 19 17 18 18 20 21 20 19 21 16 17 9 9 8 8 7 5 5 5 8 5 3
8 8 0 9 8 12 14 5 6 11 7 7 11 10 13 13 18 21 24 24 24 25 25 19 19 19 22 20 22 21 20 15 14 13 11 12 9 11 13 10 6 8 5 5
4 12 9 8 12 14 8 12 9 13 8 8 7 7 5 11 12 14 21 22 24 25 25 22 19 20 21 23 22 22 21 14 17 18 15 14 14 9 8 4 8 10 9 9
10 13 15 6 6 15 3 12 13 9 8 3 9 8 18 10 14 17 16 20 25 27 27 25 20 22 23 23 23 20 15 18 20 18 13 13 10 11 16 15 12 5 7 10
12 9 11 2 10 13 10 9 10 9 6 3 19 13 7 13 17 14 19 21 19 16 16 17 19 17 19 16 18 20 19 20 18 20 15 16 15 10 8 6 5 3 7 8
11 19 12 15 12 7 9 9 2 8 6 5 11 5 7 19 18 22 25 18 17 15 17 19 22 22 26 24 22 24 21 19 17 16 15 16 17 15 15 9 6 9 11 11
9 3 6 11 11 6 18 10 2 1 2 11 3 5 4 11 8 9 19 17 16 18 18 19 22 22 21 22 22 21 23 20 19 17 15 14 15 12 10 11 11 16 13 15
3 7 13 9 3 3 7 2 4 9 6 3 6 16 8 7 7 8 17 16 19 18 21 23 23 24 23 22 23 23 22 20 19 18 18 17 16 15 13 12 12 12 11 12
5 7 18 12 5 5 5 7 3 2 2 5 7 9 8 6 7 5 13 17 18 19 21 23 25 24 23 21 21 22 21 21 21 22 20 19 15 12 8 8 9 11 13 13
11 17 10 6 8 8 5 6 5 6 4 1 4 4 6 8 6 5 7 20 21 22 24 24 25 25 21 21 21 21 22 21 24 21 19 18 13 13 10 6 10 13 13 13
10 4 3 9 3 5 7 10 11 3 5 2 1 5 5 5 4 6 8 12 21 22 24 26 25 24 22 21 21 22 22 22 21 19 19 16 17 7 8 9 12 14 13 12
1 3 5 10 6 8 8 11 10 6 3 4 3 3 5 5 1 3 5 10 14 19 22 25 27 26 24 22 24 21 22 22 19 21 20 15 8 11 13 10 12 14 14 14
4 4 9 7 10 4 13 11 10 10 3 4 8 11 7 9 8 7 10 6 9 19 20 23 24 26 25 23 23 22 23 22 21 21 13 12 15 12 12 14 14 15 15 17
2 8 11 14 16 2 10 9 7 11 11 11 10 13 11 10 9 10 4 4 9 13 18 20 20 19 21 21 23 22 23 21 21 16 20 13 9 15 15 13 15 16 17 20
5 5 4 8 10 10 12 14 13 14 13 13 14 13 10 8 8 11 11 8 7 9 13 11 13 16 17 20 23 22 21 22 21 21 13 13 13 10 13 13 15 16 17 16
7 3 2 2 6 7 5 10 16 15 14 10 11 9 7 12 10 9 5 8 4 9 9 9 13 16 18 19 22 21 22 24 20 13 10 13 12 13 12 12 13 16 18 18
5 5 2 1 2 1 7 4 5 5 7 9 8 11 14 14 15 9 9 7 7 3 6 8 10 14 15 15 14 17 19 13 12 13 8 9 12 12 12 14 15 15 18 19
3 4 2 3 4 7 10 1 2 2 5 11 10 10 11 11 11 15 4 3 4 7 9 9 10 9 10 11 14 14 11 14 7 5 9 10 11 12 19 14 17 17 19 20
2 3 3 3 2 4 2 5 3 2 2 9 10 9 12 14 4 6 11 7 6 9 9 9 7 6 8 10 8 12 9 9 10 6 7 11 14 20 16 19 18 19 19 20
2 0 4 3 1 6 6 5 1 2 3 5 6 10 11 7 8 4 8 10 10 10 6 1 5 8 8 10 13 11 7 5 2 5 5 15 14 14 17 19 20 21 21 18
6 6 3 2 2 5 6 6 2 5 6 10 9 10 9 10 13 15 12 6 9 7 8 10 10 13 13 12 12 8 8 6 4 14 15 14 17 15 17 21 23 20 16 19
3 4 3 7 3 5 4 5 5 5 5 7 10 11 12 12 13 13 11 6 7 10 10 13 14 12 9 6 3 5 5 6 8 10 17 20 15 16 18 19 18 19 21 22
4 5 2 2 2 6 5 2 10 9 9 9 9 10 9 10 11 10 9 11 13 14 15 13 11 9 9 10 8 3 4 7 11 17 17 15 17 18 19 18 17 19 20 21
2 8 5 5 4 3 15 13 10 8 8 9 9 13 13 9 13 13 17 18 16 15 11 9 9 7 5 3 3 4 8 14 14 13 17 17 17 18 19 20 16 20 23 25
6 1 3 1 8 3 14 10 9 11 12 11 12 14 16 14 15 13 14 12 11 11 11 8 4 2 3 5 9 13 14 14 17 18 17 18 18 19 20 17 21 22 23 26
Wind_Direction
196 213 216 170 199 211 239 226 226 222 160 210 176 190 167 180 183 175 171 175 169 171 159 165 176 179 178 179 180 185 203 207 190 203 208 233 245 251 219 181 167 191 229 220
263 221 286 201 243 243 231 245 275 103 177 247 210 220 157 180 194 190 183 174 175 172 185 178 182 190 184 189 180 201 213 223 191 188 204 204 187 175 154 184 193 187 207 215
294 349 278 283 242 223 236 250 154 250 169 231 287 222 162 175 198 205 190 192 189 185 180 184 190 193 189 192 196 213 211 215 168 194 178 173 148 151 177 216 221 213 213 236
323 279 225 255 249 232 276 334 234 256 192 230 7 284 137 174 215 214 199 197 190 192 188 186 192 198 190 203 210 214 209 183 167 182 178 175 174 189 204 224 196 229 256 269
206 270 269 202 289 300 137 266 279 262 244 136 323 301 207 216 217 209 217 203 195 196 192 187 189 193 196 205 203 203 182 175 182 183 193 185 193 183 179 178 201 214 280 301
129 285 290 65 233 266 162 230 252 270 263 111 241 230 154 202 235 265 195 204 207 192 181 191 184 192 199 185 168 184 193 178 185 182 186 193 207 187 191 205 202 208 230 247
217 223 153 188 220 200 227 245 221 15 350 261 268 217 202 207 219 184 220 183 188 181 187 190 185 188 182 174 179 181 177 185 181 191 192 196 193 184 194 198 209 231 250 253
219 333 190 200 255 128 296 250 353 181 184 277 38 243 96 98 97 113 150 160 171 173 176 175 169 173 173 181 183 181 182 185 188 189 187 185 190 199 182 197 217 276 247 253
325 139 333 342 285 276 348 300 357 217 197 326 271 280 112 102 106 138 143 166 172 179 177 177 181 182 183 185 188 184 187 190 193 188 190 193 198 195 210 261 275 247 247 264
155 23 265 242 248 238 259 342 301 227 283 267 303 270 111 154 133 169 161 172 183 184 185 187 187 189 191 194 195 191 195 196 197 196 197 205 208 224 246 261 236 244 257 260
167 194 195 157 210 249 171 243 240 291 261 9 325 71 45 79 108 166 213 175 185 189 195 195 194 196 197 199 201 200 201 203 197 194 201 200 210 216 253 222 226 248 254 268
234 320 260 226 66 341 319 285 217 168 275 177 42 291 92 102 100 166 216 202 187 195 200 199 200 198 201 203 207 203 204 209 209 202 205 214 212 237 214 226 249 252 257 270
100 218 268 286 195 212 244 252 253 274 72 251 179 265 155 149 220 169 232 213 202 199 206 206 203 202 202 207 212 211 210 211 209 208 211 225 207 204 250 239 253 256 261 273
341 249 262 240 257 341 200 242 240 225 150 242 262 269 248 210 207 199 188 249 245 207 216 216 214 200 202 207 213 215 212 210 211 208 230 209 219 237 233 254 252 254 264 274
232 245 260 270 279 288 301 294 243 243 228 230 250 264 286 346 15 348 53 207 225 270 216 222 225 208 205 208 215 217 216 210 215 218 213 240 238 252 252 259 256 260 264 277
194 249 285 291 293 289 273 275 275 273 276 256 264 272 293 11 46 355 356 318 296 280 271 224 243 238 226 221 217 215 215 211 212 212 222 248 239 241 267 258 256 269 287 291
176 235 142 250 346 348 322 244 249 261 264 263 268 281 321 315 325 23 341 312 282 297 302 272 232 239 239 230 222 212 213 216 215 219 239 229 261 264 253 260 271 275 283 282
181 216 84 150 311 256 239 27 354 344 316 309 331 23 15 40 19 354 308 299 322 274 282 292 273 245 238 233 219 209 209 211 207 210 245 268 272 270 269 269 288 285 286 284
208 136 135 148 216 284 307 141 23 46 46 41 35 18 10 10 354 15 243 81 19 346 320 296 276 251 232 216 204 199 180 196 218 240 257 276 270 281 299 286 277 282 281 282
116 161 165 175 224 218 93 97 63 0 165 47 28 10 349 346 338 52 25 9 331 326 317 311 282 236 196 186 175 178 178 177 192 213 254 301 299 292 279 284 285 284 282 278
101 256 178 144 234 293 83 106 91 223 73 59 10 359 360 344 12 26 6 358 348 335 353 71 111 118 138 153 153 149 165 184 282 12 277 294 294 287 295 293 284 281 283 278
168 157 185 120 149 267 134 125 135 55 8 8 358 349 338 330 321 322 318 336 358 29 64 75 122 136 123 125 130 96 76 60 306 305 311 305 288 289 286 282 284 296 295 289
188 182 178 174 198 142 137 48 51 38 5 356 350 341 337 337 334 333 345 30 63 77 94 121 122 118 101 77 40 8 22 328 322 311 289 287 293 285 284 285 291 287 288 282
196 86 173 65 181 167 159 83 81 41 12 345 346 353 1 353 334 331 74 91 104 99 93 86 87 83 74 70 57 36 307 299 292 287 287 296 288 291 291 299 298 299 298 287
28 146 201 209 267 17 68 60 46 27 35 25 29 49 29 22 65 104 98 95 94 89 88 78 76 59 29 317 261 269 272 275 295 298 294 295 299 306 306 302 298 288 286 288
175 184 160 145 76 26 71 66 62 69 62 59 77 65 66 86 95 110 98 90 85 74 50 28 4 340 315 302 286 287 306 302 290 292 298 303 302 302 306 309 300 292 290 292
Height
1484 1485 1484 1479 1480 1488 1483 1485 1482 1472 1469 1475 1485 1483 1487 1491 1493 1496 1501 1506 1511 1514 1518 1521 1525 1529 1533 1533 1535 1540 1541 1543 1546 1550 1552 1552 1552 1552 1554 1556 1557 1558 1560 1561
1484 1483 1491 1485 1482 1482 1480 1481 1488 1471 1472 1474 1473 1478 1478 1485 1488 1490 1495 1501 1507 1512 1517 1519 1524 1527 1530 1531 1533 1536 1540 1542 1545 1549 1550 1550 1550 1552 1554 1555 1556 1557 1559 1560
1497 1486 1486 1484 1480 1483 1478 1479 1482 1478 1473 1474 1476 1479 1477 1481 1486 1489 1492 1497 1502 1507 1512 1517 1521 1525 1528 1528 1530 1534 1538 1540 1543 1548 1549 1549 1550 1552 1553 1553 1555 1555 1557 1558
1500 1487 1488 1482 1480 1477 1482 1480 1476 1473 1479 1493 1482 1499 1478 1480 1483 1483 1485 1490 1494 1501 1507 1511 1518 1522 1525 1525 1528 1531 1535 1538 1541 1546 1546 1547 1549 1550 1551 1552 1552 1553 1554 1555
1505 1496 1485 1483 1482 1476 1481 1477 1477 1472 1477 1487 1486 1500 1488 1483 1479 1479 1484 1486 1490 1495 1501 1507 1513 1518 1520 1523 1526 1529 1533 1535 1540 1543 1545 1547 1549 1548 1550 1551 1552 1553 1554 1555
1485 1490 1492 1483 1480 1476 1475 1477 1474 1473 1476 1514 1497 1499 1490 1486 1479 1487 1485 1489 1490 1494 1498 1505 1511 1515 1520 1522 1524 1527 1532 1535 1536 1540 1543 1545 1546 1546 1547 1550 1551 1552 1553 1554
1474 1475 1475 1478 1480 1472 1473 1475 1495 1525 1522 1500 1463 1474 1474 1467 1470 1483 1479 1484 1489 1494 1500 1505 1508 1513 1517 1520 1524 1526 1530 1532 1535 1538 1540 1541 1542 1543 1545 1546 1548 1549 1549 1549
1482 1494 1473 1471 1471 1488 1488 1475 1494 1524 1548 1497 1469 1477 1464 1461 1466 1466 1475 1483 1489 1495 1500 1504 1508 1513 1516 1520 1523 1525 1528 1530 1533 1535 1537 1538 1538 1540 1541 1541 1542 1543 1546 1544
1490 1494 1483 1472 1469 1473 1473 1480 1473 1490 1494 1498 1481 1464 1462 1464 1467 1469 1475 1483 1489 1495 1499 1504 1508 1512 1515 1519 1521 1523 1526 1528 1530 1532 1533 1534 1535 1536 1537 1539 1539 1539 1540 1540
1489 1515 1490 1476 1475 1473 1475 1472 1487 1483 1506 1508 1477 1465 1475 1470 1470 1472 1475 1483 1489 1494 1498 1503 1507 1510 1513 1516 1519 1521 1523 1525 1526 1528 1529 1530 1531 1532 1533 1534 1536 1537 1537 1536
1472 1491 1485 1477 1476 1472 1476 1480 1477 1476 1479 1500 1502 1482 1465 1468 1468 1473 1475 1479 1485 1490 1495 1499 1504 1507 1511 1514 1516 1518 1521 1523 1522 1523 1525 1527 1528 1528 1529 1528 1531 1532 1533 1532
1464 1465 1477 1473 1463 1465 1468 1472 1471 1492 1495 1488 1497 1493 1466 1468 1469 1473 1476 1476 1481 1487 1491 1496 1500 1503 1507 1510 1513 1516 1518 1520 1519 1522 1523 1523 1525 1526 1527 1527 1528 1528 1528 1528
1464 1472 1486 1479 1469 1466 1472 1469 1469 1469 1481 1491 1505 1491 1467 1469 1471 1471 1473 1476 1478 1483 1488 1491 1494 1498 1502 1506 1509 1512 1515 1517 1519 1520 1520 1522 1523 1524 1525 1523 1524 1524 1524 1522
1468 1469 1474 1486 1472 1467 1471 1470 1466 1471 1495 1493 1488 1475 1465 1463 1467 1468 1471 1475 1477 1479 1483 1487 1490 1492 1495 1500 1505 1509 1511 1514 1517 1516 1518 1520 1519 1522 1521 1521 1520 1520 1519 1518
1470 1476 1472 1466 1461 1466 1469 1466 1464 1469 1471 1485 1479 1472 1464 1461 1465 1466 1468 1472 1475 1477 1478 1482 1486 1488 1492 1496 1500 1505 1507 1510 1512 1514 1516 1517 1520 1519 1518 1517 1517 1516 1514 1513
1469 1475 1474 1475 1468 1467 1473 1468 1466 1465 1464 1464 1464 1465 1459 1461 1465 1469 1471 1473 1474 1477 1477 1479 1484 1487 1489 1493 1497 1501 1504 1506 1507 1511 1514 1514 1516 1514 1515 1514 1513 1512 1512 1511
1467 1475 1480 1487 1479 1481 1492 1473 1468 1464 1460 1462 1470 1463 1461 1463 1463 1468 1471 1474 1475 1478 1478 1480 1482 1486 1489 1491 1493 1497 1500 1501 1505 1509 1512 1513 1510 1511 1510 1509 1508 1507 1508 1506
1467 1472 1481 1489 1498 1502 1466 1458 1459 1462 1460 1458 1458 1462 1464 1468 1470 1471 1472 1474 1476 1477 1479 1481 1482 1483 1486 1489 1491 1494 1496 1500 1504 1507 1510 1513 1513 1511 1508 1505 1503 1503 1502 1501
1464 1474 1488 1499 1488 1472 1464 1458 1464 1465 1468 1466 1467 1470 1470 1471 1474 1472 1469 1474 1477 1479 1479 1480 1480 1481 1484 1486 1488 1491 1496 1498 1502 1505 1508 1510 1508 1508 1507 1504 1499 1498 1496 1495
1469 1469 1482 1490 1491 1495 1466 1466 1467 1466 1477 1472 1474 1476 1476 1474 1478 1477 1478 1478 1479 1479 1479 1479 1480 1481 1483 1484 1487 1490 1494 1497 1499 1500 1504 1504 1505 1505 1501 1500 1496 1492 1490 1489
1481 1482 1489 1488 1492 1480 1462 1466 1469 1479 1484 1476 1478 1478 1478 1478 1480 1479 1479 1479 1479 1479 1478 1478 1480 1482 1483 1484 1487 1489 1491 1493 1497 1501 1503 1503 1500 1498 1498 1498 1493 1488 1485 1484
1475 1478 1489 1483 1498 1496 1465 1469 1476 1475 1475 1476 1477 1478 1479 1479 1478 1477 1477 1477 1478 1478 1479 1480 1478 1479 1481 1483 1485 1488 1491 1497 1500 1501 1501 1499 1497 1494 1492 1489 1487 1483 1482 1479
1462 1459 1466 1471 1472 1466 1466 1470 1472 1474 1476 1477 1478 1478 1477 1477 1477 1477 1476 1477 1479 1480 1480 1479 1479 1481 1484 1487 1489 1492 1496 1497 1499 1498 1497 1494 1490 1489 1486 1484 1481 1478 1477 1474
1452 1456 1461 1463 1459 1461 1465 1469 1472 1475 1477 1478 1478 1477 1477 1477 1477 1476 1476 1478 1478 1479 1481 1482 1484 1486 1488 1489 1491 1495 1495 1495 1494 1491 1489 1488 1486 1484 1481 1478 1476 1474 1472 1469
1454 1456 1458 1460 1461 1464 1467 1471 1475 1477 1478 1478 1479 1478 1478 1478 1477 1475 1476 1478 1480 1482 1484 1486 1488 1490 1491 1491 1489 1489 1490 1489 1487 1487 1486 1483 1481 1478 1476 1474 1471 1470 1467 1465
1453 1454 1461 1464 1466 1468 1473 1475 1476 1477 1479 1480 1479 1479 1479 1477 1477 1477 1479 1483 1485 1487 1489 1490 1489 1489 1491 1492 1491 1489 1487 1485 1484 1482 1481 1478 1475 1473 1470 1468 1466 1464 1461 1457